Regional Weather Roundup
Issued by NWS

Home | Current Version | Previous Version | Text Only | Print | Product List | Glossary Off
Versions: 1 2 3 4 5 6 7 8 9 10 11 12 13 14 15 16 17 18 19 20 21 22 23 24 25 26 27 28 29 30 31 32 33 34 35 36 37 38 39 40 41 42 43 44 45 46 47 48 49 50

000
ASUS45 KSLC 220910
RWRUT

UTAH REGIONAL WEATHER ROUNDUP
NATIONAL WEATHER SERVICE SALT LAKE CITY UT
200 AM MST SUN JAN 22 2017

UTZ001>011-023>025-221000-

NORTHERN UTAH

CITY           SKY/WX    TMP DP  RH WIND       PRES   REMARKS
BRIGHAM CITY     N/A     23  20  89 N5        29.97R WCI  17
HILL AFB       CLEAR     25  19  78 SE7       29.95R WCI  17
LOGAN          CLOUDY    24  22  91 NE3       29.95R FOG
OGDEN          CLEAR     26  23  88 S10       29.95R WCI  16
SALT LAKE CITY PTCLDY    28  24  85 SE10      29.97R WCI  19
TOOELE VALLEY  PTCLDY    28  23  80 S16       29.97R WCI  17
WENDOVER       MOCLDY    21  18  86 NE7       29.94R WCI  13
HEBER CITY     CLOUDY    21  18  86 E5        29.96S WCI  15
WEST JORDAN    PTCLDY    28  27  97 S13       29.98S WCI  17

$$

UTZ011>015-024>027-221000-

CENTRAL/NORTHEAST UTAH

CITY           SKY/WX    TMP DP  RH WIND       PRES   REMARKS
PROVO AIRPORT  MOCLDY    20  19  96 CALM      30.02R
MOAB/CANYONLAN CLEAR     32  24  72 CALM      29.98R
DELTA          CLOUDY    23  19  86 S10       29.99S WCI  12
PRICE          PTCLDY    13   9  84 N10       29.95R WCI   0
ROOSEVELT      CLOUDY    21  19  93 CALM      29.99R
VERNAL         CLOUDY    22  20  92 E3        29.96R FOG

$$

UTZ013>016-019>022-027-221000-

SOUTHERN UTAH

CITY           SKY/WX    TMP DP  RH WIND       PRES   REMARKS
BRYCE CANYON   MOCLDY     0  -4  83 CALM      30.00R
CEDAR CITY     CLOUDY    25  14  63 MISG      29.99F
MILFORD        MOCLDY    27  22  81 SW14      29.99S WCI  16
ST GEORGE      MOSUNNY   37  28  70 CALM      30.08R
HANKSVILLE     CLEAR     30  23  74 MISG      30.02R
BLANDING       PTCLDY    19  17  92 N6        30.05R WCI  10

$$

REGIONAL REPORTS     COLORADO/ARIZONA

CITY           SKY/WX    TMP DP  RH WIND       PRES   REMARKS
CRAIG, CO      CLOUDY    25  18  74 W6        29.92R WCI  18
GRAND JUNCTION CLOUDY    29  27  92 CALM      29.96R
RIFLE, CO      CLOUDY    32  28  85 CALM      29.93R
MONTROSE, CO   CLOUDY    30  27  88 S7        29.98R WCI  23
CORTEZ, CO     CLOUDY    19  18  95 NE5       29.99R WCI  12
COLORADO CITY    N/A     21  21 100 E3        30.07S
PAGE, AZ       CLEAR     34  23  64 CALM      30.04R
GRAND CANYON   PTCLDY     1  -1  91 NE3       30.06R
KINGMAN, AZ    MOCLDY    38  23  55 SE13      30.06S WCI  30
FLAGSTAFF, AZ  CLOUDY    22  22 100 W5        30.07R WCI  16

$$

REGIONAL REPORTS    NEVADA/IDAHO/WYOMING

CITY           SKY/WX    TMP DP  RH WIND       PRES   REMARKS
LAS VEGAS, NV  CLOUDY    48  31  51 S6        30.00S
ELY, NY        CLOUDY    23  17  78 S18       29.93F WCI   9
ELKO, NV       MOCLDY    21  15  78 VRB5      29.85F WCI  15
POCATELLO, ID  CLOUDY    33  24  69 S8        29.90R WCI  26
BURLEY, ID     CLOUDY    35  24  64 S12       29.86F WCI  27
FORT BRIDGER,    N/A     21  19  93 W13       29.92R WCI   9
EVANSTON, WY   CLOUDY    18  13  80 SW10      29.91R WCI   6
ROCK SPRINGS,  CLEAR     19  15  84 W20       29.88R WCI   3

$$



USA.gov is the U.S. government's official web portal to all federal, state and local government web resources and services.